Location: ?????????
(55.2240°N, 38.1353°E)
Time: 08:35:17
(UTC+00:00)

Daily predictions for brighter satellites

Satellite Brightness Start Highest point End
(mag) Time Altitude Azimuth Time Altitude Azimuth Time Altitude Azimuth
NOSS 3-2 (C) 4.1 13:33:59 10° S 13:38:37 34° ESE 13:44:03 10° ENE
Cosmos 2297 Rocket 2.6 13:34:17 10° NW 13:39:58 72° WSW 13:45:36 10° SSE
Cosmos 2034 Rocket 4.4 13:34:36 10° SSW 13:40:56 73° WNW 13:47:22 10° N
Cosmos 2266 Rocket 4.2 13:35:21 10° N 13:41:18 48° ENE 13:47:07 10° SE
ACS3 Solar Sail 4.4 13:38:48 10° WSW 13:41:22 13° WNW 13:43:57 10° NW
Cosmos 1626 Rocket 3.5 13:37:30 10° N 13:41:52 84° ENE 13:46:10 10° SSE
Meteor 1-20 Rocket 4.3 13:36:29 10° N 13:41:52 53° ENE 13:47:13 10° SSE
Cosmos 1356 Rocket 3.4 13:39:33 10° SSW 13:43:38 85° WNW 13:47:46 10° NNE
Cosmos 2228 3.0 13:40:14 10° S 13:44:28 78° E 13:48:44 10° NNE
SJ 16-02 3.8 13:46:24 10° NW 13:47:17 11° NNW 13:48:10 10° NNW
Cosmos 2084 4.0 13:44:10 10° W 13:48:12 45° NNW 13:52:11 10° NE
Cosmos 44 Rocket 4.2 13:45:10 10° NW 13:49:45 32° NNE 13:54:23 10° E
Iridium 51 3.7 13:47:16 10° S 13:50:26 78° E 13:53:41 10° N
JB-3 4.3 13:49:22 10° NNE 13:52:59 55° E 13:56:33 10° S
Cosmos 1315 Rocket 3.2 13:50:12 10° SSW 13:54:00 63° WNW 13:57:50 10° N
IGS 5A 3.5 13:50:35 10° SSE 13:54:26 53° ENE 13:58:21 10° N
CZ-4C R/B 3.5 13:49:16 10° NW 13:55:52 65° SW 14:04:10 10° SSE
Cosmos 1461 3.4 13:52:33 10° SSW 13:56:14 41° SE 13:59:53 11° ENE
Cosmos 2151 2.9 13:52:31 10° N 13:56:41 65° ENE 14:00:50 10° SSE
Cosmos 1867 4.2 13:52:39 10° NW 13:58:03 63° SW 14:03:25 10° SSE
ARIANE 5 R/B 2.9 13:54:08 10° SE 13:58:51 40° ENE 14:03:40 10° N
Cosmos 1844 Rocket 3.7 13:55:57 10° NNW 14:00:38 25° NNE 14:05:17 10° E
USA 290 4.1 13:58:18 10° NW 14:01:20 36° WSW 14:04:21 10° S
CORIOLIS 4.2 13:58:48 10° SE 14:04:00 56° ENE 14:09:14 10° N
Cosmos 1544 Rocket 3.6 13:59:41 10° S 14:04:05 72° E 14:08:32 10° NNE
Cosmos 2219 3.5 13:58:52 10° NNW 14:04:26 48° NE 14:09:58 10° ESE
CENTAUR R/B 3.0 14:00:03 10° WSW 14:06:11 64° NNW 14:13:39 11° NE
Cosmos 1980 Rocket 3.5 14:03:02 10° SE 14:07:01 20° E 14:10:31 12° ENE
Cosmos 2263 Rocket 2.2 14:04:19 10° NNW 14:09:59 65° NE 14:15:38 10° SE
IRS-1C 4.3 14:06:27 10° SE 14:11:33 49° ENE 14:16:41 10° N
Meteor 1-28 Rocket 3.3 14:12:46 10° NNE 14:15:59 41° E 14:19:09 10° S
CBERS-1 4.1 14:12:31 10° SSE 14:17:38 85° WSW 14:22:47 10° NNW
Cosmos 1943 Rocket 4.0 14:15:28 10° NW 14:18:44 16° N 14:22:01 10° NE
Meteor 1-5 Rocket 4.2 14:14:12 10° N 14:19:27 54° ENE 14:24:50 10° SSE
NOSS 2-2 (D) 2.7 14:18:08 10° WSW 14:21:14 71° NW 14:23:27 17° NE
Cosmos 1602 Rocket 3.8 14:17:15 10° NNW 14:21:39 75° W 14:25:59 10° S
CZ-2D R/B 3.1 14:21:39 10° SE 14:24:36 39° ENE 14:27:35 10° N
Cosmos 1782 2.8 14:21:59 10° SSW 14:25:34 68° WNW 14:29:09 10° N
SPOT 1/Viking Rocket 4.1 14:21:12 10° SE 14:25:53 35° ENE 14:30:35 10° N
SAR-Lupe-4 3.7 14:23:35 10° SE 14:27:00 47° ENE 14:30:27 10° N
AQUARIUS 4.4 14:23:00 10° SE 14:27:13 46° ENE 14:31:26 10° N
Cosmos 1538 Rocket 4.0 14:22:12 10° NNW 14:27:30 68° ENE 14:32:48 10° SE
NOSS 2-3 (E) 4.4 14:24:29 10° S 14:27:33 26° ESE 14:29:28 17° E
YAOGAN 1 3.6 14:24:33 10° ESE 14:27:53 23° ENE 14:31:14 10° N
Meteor 1-25 Rocket 4.3 14:24:20 10° NNW 14:30:12 89° ENE 14:35:59 10° SSE
Cosmos 2227 Rocket 2.7 14:26:08 10° NW 14:31:45 66° WSW 14:37:20 10° SSE
Okean 1-7 Rocket 3.6 14:29:15 10° NNW 14:33:40 81° W 14:38:02 10° S
SL-16 R/B 2.5 14:28:48 10° NNE 14:35:05 82° ESE 14:41:17 10° SSW
Cosmos 2369 Rocket 3.9 14:32:47 10° WNW 14:37:15 23° NNW 14:41:47 10° NNE
Cosmos 1933 3.2 14:34:20 10° S 14:38:06 58° E 14:41:45 11° NNE
Cosmos 1743 4.3 14:36:35 10° NNW 14:39:30 31° W 14:42:25 10° SSW
Cosmos 1503 Rocket 3.9 14:34:28 10° SSW 14:39:42 82° ESE 14:44:31 12° NNE
USA 238 DEB 4.3 14:34:39 10° S 14:40:07 34° ESE 14:44:05 19° ENE
MOS 1 Rocket 3.5 14:35:12 10° SSE 14:40:12 60° ENE 14:45:26 10° N
USA 238 4.3 14:34:47 10° S 14:40:15 34° ESE 14:44:11 19° ENE
SAR-Lupe-1 4.1 14:36:55 10° SSE 14:40:27 57° ENE 14:44:02 10° N
SMAP 3.1 14:36:33 10° SSE 14:41:13 87° WSW 14:45:55 10° NNW
Lacrosse 4 Rocket 3.1 14:39:26 10° WNW 14:42:34 21° NNW 14:45:13 12° NNE
PSLV R/B 4.4 14:40:53 12° ESE 14:43:46 25° ENE 14:47:08 10° N
Landsat 7 3.7 14:40:23 10° SSE 14:45:02 82° ENE 14:49:44 10° NNW
Cosmos 1697 Rocket 2.7 14:39:56 10° SSW 14:45:28 66° ESE 14:49:54 17° NE
USA 215 3.3 14:40:15 17° ENE 14:45:31 80° N 14:52:05 10° W
Cosmos 1953 Rocket 3.5 14:42:19 10° N 14:46:47 66° ENE 14:51:13 10° SSE
Lacrosse 5 rocket 1.1 14:43:33 10° W 14:47:15 64° N 14:49:01 28° ENE
Thor Agena Rocket 3.9 14:43:28 10° S 14:48:37 67° WSW 14:53:44 10° NNW
COSMO-SKYMED 1 4.5 14:51:25 13° ESE 14:51:25 13° ESE 14:52:07 10° SE
NOSS 2-2 (E) 3.1 14:46:48 10° WSW 14:49:49 51° NNW 14:51:12 27° NNE
Cosmos 1656 4.2 14:45:19 10° SW 14:50:53 57° NW 14:55:57 13° NNE
Cosmos 2360 4.5 14:45:22 10° SW 14:51:04 70° NW 14:56:03 14° NNE
Cosmos 1354 Rocket 3.9 14:46:06 10° SSW 14:51:21 75° ESE 14:55:39 15° NNE
Cosmos 1777 Rocket 4.2 14:46:23 10° SSW 14:51:38 75° WNW 14:56:25 13° NNE
SJ-12 3.6 14:48:18 10° SSE 14:52:05 82° ENE 14:55:54 10° NNW
Cosmos 2278 Rocket 3.9 14:48:56 10° NNW 14:52:28 17° N 14:54:34 14° NNE
BREEZE-M DEB (TANK) 4.3 14:50:16 10° WSW 14:53:19 43° S 15:01:52 10° ESE
Cosmos 1825 Rocket 3.8 14:49:39 10° NNW 14:53:59 70° W 14:58:16 10° S
Cosmos 1076 Rocket 3.4 14:51:35 10° N 14:55:55 85° E 15:00:15 10° SSE
Cosmos 1898 Rocket 4.2 14:53:11 10° SSE 14:57:41 31° ESE 14:59:22 26° ENE
NOSS 2-2 (C) 4.1 14:55:24 10° W 14:58:04 28° NNW 14:59:06 23° NNE
ERS-1 4.4 14:54:26 10° SSE 14:59:27 88° ENE 15:04:26 10° NNW
Cosmos 2112 Rocket 4.3 14:55:03 10° NNW 15:00:01 42° NE 15:04:01 15° ESE
Spot 4 Rocket 4.2 14:55:10 10° SE 15:00:02 46° ENE 15:04:56 10° N
IRS-P3 4.0 14:55:14 10° SSE 15:00:32 80° ENE 15:05:53 10° NNW
Cosmos 2098 Rocket 4.4 14:58:36 10° SW 15:03:06 47° WNW 15:08:18 10° N
Cosmos 1805 2.8 15:02:21 10° N 15:05:40 55° ENE 15:08:58 10° SSE
Cosmos 1655 Rocket 4.0 15:01:46 10° NNW 15:08:02 86° W 15:14:16 10° S
Cosmos 923 Rocket 3.9 15:03:39 10° NNW 15:08:52 68° ENE 15:14:01 10° SE
Radarsat Rocket 4.5 15:01:59 10° SE 15:09:36 60° ENE 15:16:20 10° NNW
Cosmos 1937 Rocket 4.2 15:07:16 10° SSE 15:11:45 31° ESE 15:12:17 30° E
Cosmos 990 Rocket 3.9 15:08:59 10° SSW 15:14:08 88° WNW 15:17:45 20° NNE
Cosmos 1844 3.9 15:09:25 10° NNW 15:14:51 47° NE 15:17:29 28° ESE
GEOS 3 Rocket 4.0 15:12:45 30° ENE 15:15:10 50° SE 15:20:23 10° SSW
Resurs 01 Rocket 3.2 15:18:08 19° NNE 15:18:08 19° NNE 15:19:47 10° N
Cosmos 494 Rocket 4.1 15:15:07 10° NNW 15:20:14 49° NE 15:22:41 28° ESE
Cosmos 2082 3.8 15:15:13 10° NW 15:20:57 80° WSW 15:26:41 10° SSE
Meteor 2-11 Rocket 4.5 15:14:57 10° N 15:21:02 55° ENE 15:27:04 10° SSE
Gbstr 26 Del rocket 3.4 15:18:18 10° WSW 15:22:04 41° SSE 15:22:51 36° SE
SJ-7 4.1 15:23:14 43° ESE 15:24:10 57° ENE 15:27:53 10° N
NOSS 3-2 (A) 3.9 15:19:45 10° W 15:25:10 51° NNW 15:28:38 27° NE
Cosmos 2058 Rocket 3.0 15:23:37 10° S 15:28:03 64° E 15:29:48 35° NNE
NOSS 3-2 (C) 3.4 15:23:35 10° WSW 15:28:56 72° NW 15:32:13 30° NE
CZ-4 R/B 4.3 15:25:40 10° SSE 15:29:37 82° WSW 15:33:35 10° NNW
IRAS Rocket 4.1 15:24:58 10° SSE 15:30:23 67° ENE 15:35:50 10° NNW
Cosmos 44 Rocket 3.3 15:26:44 10° NW 15:31:51 75° NE 15:34:02 36° ESE
Cosmos 1606 Rocket 4.4 15:27:56 10° SSW 15:32:15 51° WNW 15:36:35 10° N
Cosmos 1461 3.6 15:29:14 10° WSW 15:33:00 43° NNW 15:34:00 35° N
Cosmos 2227 4.1 15:27:21 10° NNW 15:33:01 69° NE 15:36:18 26° SE
Aureole 1 Rocket 3.5 15:28:57 10° SSW 15:33:51 74° ESE 15:37:03 29° NE
Meteor 2-9 Rocket 4.3 15:30:58 10° N 15:36:06 44° ENE 15:36:10 44° ENE
SL-16 R/B 3.9 15:32:22 10° SSE 15:34:05 17° SE 15:34:05 17° SE
ARIANE 5 R/B 3.8 15:33:04 10° S 15:37:54 42° W 15:42:50 10° NNW
Okean 1 4.0 15:35:41 10° S 15:37:57 35° SSE 15:37:57 35° SSE
Cosmos-2242 2.8 15:35:25 10° S 15:39:40 76° E 15:40:30 55° NNE
Cosmos 1680 Rocket 3.4 15:34:55 10° NNW 15:40:11 85° ENE 15:45:16 11° SSE
Cosmos 1844 Rocket 2.6 15:39:46 10° NNW 15:45:27 73° NE 15:47:51 36° SE
Resurs 1-3 3.5 15:42:43 10° SSE 15:47:01 86° WSW 15:51:22 10° NNW
Cosmos 2219 4.2 15:43:09 10° NW 15:48:37 46° WSW 15:54:04 10° S
NOAA 6 3.8 15:44:05 10° SSE 15:49:11 76° ENE 15:54:18 10° NNW
Nadezhda 2 Rocket 4.4 15:43:07 10° NNW 15:49:17 84° W 15:55:23 10° S
Cosmos 1980 Rocket 2.1 15:44:36 10° SSW 15:50:17 87° ESE 15:52:17 42° NE
USA 281 4.0 15:50:37 31° NE 15:50:44 31° NE 15:56:20 10° NNW
Cosmos 2263 Rocket 4.0 15:48:38 10° NW 15:53:34 31° WSW 15:58:30 10° SSW
OceanSat 1 rocket 4.5 15:49:55 10° SSE 15:54:39 89° ENE 15:59:23 10° NNW
Meteor 2-2 Rocket 4.1 15:51:19 10° S 15:56:57 86° ESE 16:00:12 27° NNE
Cosmos 1553 Rocket 3.8 15:51:33 10° S 15:57:43 77° E 16:04:04 10° NNE
CENTAUR R/B 3.5 15:51:28 10° WNW 15:58:01 46° N 16:00:45 35° NE
CZ-2D R/B 4.0 15:54:35 10° S 15:58:41 56° WSW 16:02:45 10° NNW
EO 1 Delta rocket 4.3 15:58:37 56° ENE 15:58:48 56° ENE 16:05:07 10° N
NOSS 2-3 (C) 3.6 15:56:53 10° SW 15:59:41 56° WSW 15:59:41 56° WSW
COSMOS 2455 3.4 15:55:05 10° S 15:59:48 38° SE 15:59:48 38° SE
Meteor 1-26 Rocket 4.0 15:55:47 10° SSW 16:01:11 87° WNW 16:03:54 31° NNE
YAOGAN 1 3.0 15:59:12 10° S 16:03:25 61° WSW 16:07:39 10° NNW
Cosmos 1943 Rocket 3.7 16:00:24 10° NNW 16:03:34 20° N 16:03:34 20° N
Cosmos 1709 Rocket 3.8 15:58:58 10° N 16:05:02 61° ENE 16:05:39 58° E
SPOT 1/Viking Rocket 4.4 16:00:04 10° S 16:05:07 49° W 16:10:11 10° NNW
Meteor 2-20 Rocket 4.5 16:01:08 10° SSW 16:07:16 76° WNW 16:12:37 13° N
Cosmos 1745 Rocket 3.8 16:03:50 10° N 16:10:04 82° E 16:16:13 10° SSE
Cosmos 2369 3.6 16:04:23 10° SSW 16:10:06 76° ESE 16:10:35 71° ENE
NOSS 2-3 (D) 4.2 16:12:10 10° WSW 16:15:00 46° W 16:15:00 46° W
SKYMED 2 3.9 16:16:13 65° WNW 16:16:13 65° WNW 16:20:29 10° SSW
NOSS 2-3 (E) 4.3 16:13:31 10° WSW 16:16:17 44° W 16:16:17 44° W
SL-16 R/B 4.2 16:12:55 10° N 16:18:06 29° NW 16:23:17 10° WSW
PSLV R/B 4.3 16:17:07 30° SSW 16:18:46 48° W 16:22:44 10° NNW
Lacrosse 4 Rocket 3.9 16:19:49 10° NNW 16:20:42 12° NNW 16:20:42 12° NNW
Cosmos 2369 Rocket 4.1 16:19:52 10° NW 16:23:25 16° N 16:23:38 16° N
Lacrosse 5 rocket 2.9 16:20:42 10° WNW 16:22:36 29° WNW 16:22:36 29° WNW
COSMO-SKYMED 1 4.3 16:27:44 24° SSW 16:27:44 24° SSW 16:29:24 10° SSW
USA 215 3.1 16:27:35 69° E 16:28:29 84° NNE 16:35:05 10° WNW
Cosmos 1697 Rocket 3.9 16:24:39 10° WSW 16:29:49 36° NW 16:31:37 29° N
USA 238 DEB 3.6 16:24:11 10° SW 16:30:29 80° NW 16:31:31 65° NNE
USA 238 3.6 16:24:16 10° SW 16:30:36 81° NW 16:31:37 65° NNE
Cosmos 2278 Rocket 3.9 16:33:42 10° NNW 16:36:24 22° N 16:36:24 22° N
Cosmos 1898 Rocket 4.0 16:34:23 10° SW 16:39:27 55° NW 16:39:35 54° NW
Cosmos 2333 Rocket 4.3 16:35:46 10° S 16:36:34 14° S 16:36:34 14° S
Cosmos 967 Rocket 4.5 16:38:34 10° SW 16:44:23 75° SSW 16:44:23 75° SSW
Resurs 01 Rocket 4.0 16:55:31 16° NNW 16:55:31 16° NNW 16:56:30 10° NNW
GEOS 3 Rocket 4.2 16:53:48 56° WNW 16:53:48 56° WNW 16:58:32 10° WSW
Cosmos 1937 Rocket 4.3 16:48:18 10° SW 16:52:25 48° W 16:52:25 48° W
Meteor 1-11 Rocket 4.2 16:50:34 10° NNW 16:55:23 57° NW 16:55:23 57° NW
SL-16 R/B 4.2 17:14:25 10° SW 17:15:59 19° SW 17:15:59 19° SW
NOSS 3-2 (C) 4.5 17:15:08 10° WNW 17:19:38 39° NNW 17:19:38 39° NNW
Cosmos 1844 Rocket 4.4 17:24:11 10° NW 17:28:53 27° WSW 17:29:33 27° WSW
USA 281 4.3 17:37:29 37° NNW 17:37:29 37° NNW 17:41:13 10° NNW
Cosmos 1980 Rocket 3.9 17:30:01 10° W 17:34:02 28° NW 17:34:02 28° NW
CENTAUR R/B 3.7 17:42:37 10° NW 17:47:51 47° NNW 17:47:51 47° NNW
